Previsão horária em Almazovo

Hoje, 26 Janeiro, Terça-feira

Tempo Temperatura Precipitação Vento Pressão Humidade
00:00 -2°C° 0.1 mm 7 m/s 735 mmHg 95%
01:00 -3°C° 0.1 mm 7 m/s 735 mmHg 95%
02:00 -4°C° 0.1 mm 8 m/s 734 mmHg 94%
03:00 -4°C° 0 mm 8 m/s 733 mmHg 92%
04:00 -4°C° 0 mm 8 m/s 733 mmHg 89%
05:00 -4°C° 0 mm 8 m/s 732 mmHg 86%
06:00 -4°C° 0.4 mm 9 m/s 732 mmHg 90%
07:00 -4°C° 0.4 mm 9 m/s 731 mmHg 93%
08:00 -4°C° 0 mm 10 m/s 731 mmHg 97%
09:00 -3°C° 0.3 mm 9 m/s 731 mmHg 97%
10:00 -3°C° 0.3 mm 9 m/s 731 mmHg 98%
11:00 -1°C° 0.3 mm 8 m/s 731 mmHg 99%
12:00 -2°C° 0.1 mm 8 m/s 731 mmHg 96%
13:00 -2°C° 0.1 mm 8 m/s 731 mmHg 92%
14:00 -2°C° 0.1 mm 8 m/s 732 mmHg 88%
15:00 -2°C° 0 mm 8 m/s 732 mmHg 86%
16:00 -4°C° 0 mm 8 m/s 733 mmHg 84%
17:00 -3°C° 0 mm 7 m/s 734 mmHg 82%
18:00 -3°C° 0 mm 7 m/s 734 mmHg 82%
19:00 -3°C° 0 mm 7 m/s 734 mmHg 82%
20:00 -3°C° 0 mm 7 m/s 734 mmHg 82%
21:00 -3°C° 0 mm 7 m/s 734 mmHg 84%
22:00 -3°C° 0 mm 7 m/s 734 mmHg 86%
23:00 -3°C° 0 mm 7 m/s 734 mmHg 88%

Amanhã, 27 Janeiro, Quarta-feira

Tempo Temperatura Precipitação Vento Pressão Humidade
00:00 -3°C° 0 mm 7 m/s 734 mmHg 88%
01:00 -3°C° 0 mm 7 m/s 734 mmHg 88%
02:00 -3°C° 0 mm 7 m/s 734 mmHg 88%
03:00 -4°C° 0 mm 6 m/s 734 mmHg 89%
04:00 -4°C° 0 mm 6 m/s 734 mmHg 89%
05:00 -5°C° 0 mm 6 m/s 734 mmHg 89%
06:00 -5°C° 0 mm 5 m/s 734 mmHg 90%
07:00 -5°C° 0 mm 5 m/s 735 mmHg 90%
08:00 -4°C° 0 mm 4 m/s 735 mmHg 91%
09:00 -4°C° 0 mm 4 m/s 735 mmHg 91%
10:00 -4°C° 0 mm 3 m/s 735 mmHg 91%
11:00 -2°C° 0 mm 3 m/s 736 mmHg 91%
12:00 -2°C° 0 mm 2 m/s 735 mmHg 91%
13:00 -2°C° 0 mm 2 m/s 735 mmHg 91%
14:00 0°C° 0 mm 1 m/s 735 mmHg 91%
15:00 0°C° 0 mm 1 m/s 735 mmHg 92%
16:00 -1°C° 0 mm 1 m/s 735 mmHg 93%
17:00 -1°C° 0 mm 1 m/s 735 mmHg 93%
18:00 -1°C° 0 mm 1 m/s 735 mmHg 94%
19:00 -1°C° 0 mm 1 m/s 735 mmHg 94%
20:00 -1°C° 0 mm 1 m/s 735 mmHg 95%
21:00 -3°C° 0.2 mm 2 m/s 735 mmHg 95%
22:00 -4°C° 0.2 mm 3 m/s 735 mmHg 96%
23:00 -3°C° 0.2 mm 4 m/s 735 mmHg 96%

Depois de amanhã, 28 Janeiro, Quinta-feira

Tempo Temperatura Precipitação Vento Pressão Humidade
00:00 -3°C° 0.2 mm 4 m/s 735 mmHg 96%
01:00 -3°C° 0.2 mm 4 m/s 734 mmHg 97%
02:00 -2°C° 0.2 mm 4 m/s 734 mmHg 97%
03:00 -2°C° 0.1 mm 4 m/s 734 mmHg 98%
04:00 -1°C° 0.1 mm 4 m/s 733 mmHg 98%
05:00 0°C° 0.1 mm 3 m/s 733 mmHg 98%
06:00 -1°C° 0 mm 4 m/s 733 mmHg 97%
07:00 -1°C° 0 mm 4 m/s 733 mmHg 95%
08:00 -2°C° 0 mm 5 m/s 733 mmHg 94%
09:00 -1°C° 0 mm 4 m/s 733 mmHg 95%
10:00 -1°C° 0 mm 4 m/s 733 mmHg 97%
11:00 -1°C° 0 mm 4 m/s 732 mmHg 98%
12:00 -1°C° 0.2 mm 5 m/s 732 mmHg 98%
13:00 -1°C° 0.2 mm 5 m/s 732 mmHg 98%
14:00 -1°C° 0.2 mm 5 m/s 732 mmHg 98%
15:00 -1°C° 0 mm 5 m/s 732 mmHg 98%
16:00 -1°C° 0 mm 5 m/s 732 mmHg 97%
17:00 -1°C° 0 mm 5 m/s 732 mmHg 97%
18:00 -1°C° 0 mm 5 m/s 732 mmHg 97%
19:00 -1°C° 0 mm 5 m/s 732 mmHg 97%
20:00 -1°C° 0 mm 5 m/s 732 mmHg 97%
21:00 -1°C° 0 mm 5 m/s 732 mmHg 97%
22:00 -1°C° 0 mm 4 m/s 732 mmHg 97%
23:00 0°C° 0 mm 3 m/s 732 mmHg 96%

29 Janeiro, Sexta-feira

Tempo Temperatura Precipitação Vento Pressão Humidade
00:00 -1°C° 0 mm 4 m/s 732 mmHg 97%
01:00 -1°C° 0 mm 4 m/s 731 mmHg 97%
02:00 -1°C° 0 mm 4 m/s 731 mmHg 98%
03:00 -1°C° 0 mm 3 m/s 731 mmHg 96%
04:00 -1°C° 0 mm 3 m/s 730 mmHg 95%
05:00 -1°C° 0 mm 3 m/s 730 mmHg 94%
06:00 -3°C° 0 mm 4 m/s 729 mmHg 92%
07:00 -3°C° 0 mm 4 m/s 729 mmHg 90%
08:00 -4°C° 0 mm 4 m/s 728 mmHg 88%
09:00 -4°C° 0 mm 5 m/s 728 mmHg 88%
10:00 -4°C° 0 mm 5 m/s 727 mmHg 87%
11:00 -4°C° 0 mm 6 m/s 727 mmHg 87%
12:00 -4°C° 0.1 mm 6 m/s 726 mmHg 87%
13:00 -4°C° 0.1 mm 5 m/s 726 mmHg 86%
14:00 -4°C° 0.1 mm 5 m/s 725 mmHg 85%
15:00 -4°C° 0.1 mm 5 m/s 725 mmHg 88%
16:00 -5°C° 0.1 mm 5 m/s 725 mmHg 90%
17:00 -5°C° 0.1 mm 5 m/s 724 mmHg 93%
18:00 -5°C° 0.2 mm 5 m/s 724 mmHg 93%
19:00 -6°C° 0.2 mm 5 m/s 724 mmHg 93%
20:00 -6°C° 0.2 mm 5 m/s 724 mmHg 94%
21:00 -6°C° 0.1 mm 5 m/s 724 mmHg 93%
22:00 -7°C° 0.1 mm 5 m/s 724 mmHg 92%
23:00 -7°C° 0.1 mm 4 m/s 724 mmHg 91%

30 Janeiro, Sábado

Tempo Temperatura Precipitação Vento Pressão Humidade
00:00 -8°C° 0 mm 4 m/s 723 mmHg 92%
01:00 -8°C° 0 mm 4 m/s 723 mmHg 92%
02:00 -8°C° 0 mm 4 m/s 723 mmHg 93%
03:00 -8°C° 0 mm 4 m/s 723 mmHg 93%
04:00 -8°C° 0 mm 4 m/s 723 mmHg 93%
05:00 -8°C° 0 mm 4 m/s 723 mmHg 93%
06:00 -8°C° 0.1 mm 5 m/s 723 mmHg 93%
07:00 -7°C° 0.1 mm 5 m/s 723 mmHg 93%
08:00 -8°C° 0.1 mm 6 m/s 724 mmHg 93%
09:00 -8°C° 0.1 mm 6 m/s 724 mmHg 92%
10:00 -8°C° 0.1 mm 7 m/s 725 mmHg 91%
11:00 -8°C° 0.1 mm 7 m/s 725 mmHg 90%
12:00 -8°C° 0 mm 7 m/s 725 mmHg 89%
13:00 -8°C° 0 mm 7 m/s 726 mmHg 87%
14:00 -8°C° 0 mm 7 m/s 726 mmHg 86%
15:00 -8°C° 0 mm 6 m/s 726 mmHg 87%
16:00 -8°C° 0 mm 6 m/s 727 mmHg 89%
17:00 -9°C° 0 mm 6 m/s 727 mmHg 90%
18:00 -8°C° 0 mm 5 m/s 727 mmHg 90%
19:00 -8°C° 0 mm 5 m/s 728 mmHg 91%
20:00 -8°C° 0 mm 4 m/s 728 mmHg 91%
21:00 -8°C° 0 mm 4 m/s 728 mmHg 92%
22:00 -8°C° 0 mm 4 m/s 728 mmHg 93%
23:00 -7°C° 0 mm 3 m/s 729 mmHg 94%

31 Janeiro, Domingo

Tempo Temperatura Precipitação Vento Pressão Humidade
00:00 -7°C° 0 mm 3 m/s 729 mmHg 93%
01:00 -7°C° 0 mm 3 m/s 729 mmHg 93%
02:00 -7°C° 0 mm 3 m/s 729 mmHg 93%
03:00 -8°C° 0 mm 3 m/s 729 mmHg 93%
04:00 -8°C° 0 mm 3 m/s 729 mmHg 92%
05:00 -8°C° 0 mm 3 m/s 729 mmHg 92%
06:00 -9°C° 0 mm 4 m/s 729 mmHg 92%
07:00 -9°C° 0 mm 4 m/s 730 mmHg 92%
08:00 -10°C° 0 mm 4 m/s 730 mmHg 93%
09:00 -10°C° 0 mm 5 m/s 730 mmHg 90%
10:00 -9°C° 0 mm 6 m/s 731 mmHg 88%
11:00 -8°C° 0 mm 6 m/s 731 mmHg 86%
12:00 -8°C° 0 mm 6 m/s 732 mmHg 85%
13:00 -8°C° 0 mm 6 m/s 732 mmHg 84%
14:00 -8°C° 0 mm 6 m/s 732 mmHg 82%
15:00 -7°C° 0 mm 5 m/s 732 mmHg 84%
16:00 -8°C° 0 mm 5 m/s 733 mmHg 85%
17:00 -8°C° 0 mm 5 m/s 733 mmHg 86%
18:00 -10°C° 0 mm 5 m/s 734 mmHg 88%
19:00 -10°C° 0 mm 5 m/s 734 mmHg 89%
20:00 -10°C° 0 mm 5 m/s 734 mmHg 90%
21:00 -9°C° 0 mm 4 m/s 735 mmHg 91%
22:00 -10°C° 0 mm 4 m/s 735 mmHg 92%
23:00 -9°C° 0 mm 3 m/s 735 mmHg 93%
Mostrar mais

Necessitamos do seu Consentimento

A Meteoprog e os seus Fornecedores de Serviços podem armazenar e aceder a dados pessoais como cookies, identificadores do dispositivo ou outras tecnologias semelhantes existentes no seu dispositivo e processar estes dados para personalizar conteúdos e anúncios, assim como funcionalidades nas redes sociais e análise de tráfego.

  • Armazenar e/ou aceder a informações no seu dispositivo

    Os cookies, identificadores do dispositivo ou outras informações podem ser armazenados ou acedidos no seu dispositivo, para os fins acima indicados.

  • Anúncios e conteúdos personalizados, medição de anúncios e conteúdos, dados sobre o público-alvo e desenvolvimento de produtos

    Os anúncios e os conteúdos podem ser personalizados com base num perfil. Podem ser adicionados dados adicionais para uma maior personalização dos anúncios e dos conteúdos. A eficácia dos anúncios e dos conteúdos pode ser medida. Podem ser obtidas informações sobre o público que visualizou os anúncios e os conteúdos. Estes dados podem ser usados para desenvolver ou melhorar sistemas, softwares ou a experiência do utilizador.

Ao clicar em "Eu concordo”, permitirá o uso de cookies, identificadores do dispositivo e web beacons mencionados ou outras tecnologias semelhantes. As configurações do navegador do seu dispositivo podem ser alteradas.

Para certos fins, podem ser invocados interesses legítimos ao invés de consentimento. Pode ler mais informação sobre este assunto na nossa Política de Privacidade e Cookies.